Dutzow, MO

2:23 PM CDT on July 25, 2016 (GMT -0500)
Washington

Weather History for KFYG - October, 2013

Change the Weather History Date:

Friday, October 18, 2013

  Actual Average (KSTL) Record (KSTL)
Temperature  
Mean Temperature 50 °F 58 °F  
Max Temperature 59 °F 68 °F 87 °F (1953)
Min Temperature 41 °F 48 °F 27 °F (1976)
Degree Days  
Heating Degree Days 15 8  
Month to date heating degree days 106  
Since 1 July heating degree days 147  
Cooling Degree Days 0 1  
Month to date cooling degree days 32  
Year to date cooling degree days 1633  
Moisture  
Dew Point 40 °F    
Average Humidity 76    
Maximum Humidity 100    
Minimum Humidity 36    
Precipitation  
Precipitation 0.09 in 0.11 in 2.21 in (1883)
Month to date precipitation 1.93  
Year to date precipitation 32.81  
Snow  
Snow 0.00 in 0.00 in T in (1898)
Month to date snowfall 0.0  
Since 1 July snowfall 0.0  
Since 1 September snowfall 0.0  
Snow Depth -    
Sea Level Pressure  
Sea Level Pressure 30.01 in    
Wind  
Wind Speed 3 mph (NW)    
Max Wind Speed 14 mph    
Max Gust Speed 18 mph    
Visibility 9 miles    
Events Rain    
T = Trace of Precipitation, MM = Missing Value Source: NWS Daily Summary

Daily Weather History Graph

Daily Weather History Graph

Search for Another Location

Airport or City:

Trip Planner

Search our weather history database for the weather conditions in past years. The results will help you decide how hot, cold, wet, or windy it might be!

Date:

Astronomy

Oct. 18, 2013 Rise Set
Actual Time 7:16 AM CDT 6:21 PM CDT
Civil Twilight 6:49 AM CDT 6:48 PM CDT
Nautical Twilight 6:18 AM CDT 7:18 PM CDT
Astronomical Twilight 5:47 AM CDT 7:49 PM CDT
Moon 6:11 PM CDT (10/18) 6:52 AM CDT (10/18)
Length of Visible Light 11h 58m
Length of Day
11h 04m
Full, 100% of the Moon is Illuminated
Oct 18
Full
Oct 18
Full
Oct 26
Last Quarter
Nov 3
New
Nov 9
First Quarter

Hourly Weather History & Observations

Time (CDT) Temp. Windchill Dew Point Humidity Pressure Visibility Wind Dir Wind Speed Gust Speed Precip Events Conditions
12:15 AM 44.6 °F - 44.6 °F 100% 29.96 in 10.0 mi Calm Calm - N/A   Partly Cloudy
12:35 AM 44.6 °F - 42.8 °F 93% 29.96 in 10.0 mi Calm Calm - N/A   Scattered Clouds
12:55 AM 44.6 °F - 44.6 °F 100% 29.96 in 10.0 mi Calm Calm - N/A   Scattered Clouds
1:15 AM 42.8 °F - 42.8 °F 100% 29.96 in 10.0 mi Calm Calm - N/A   Scattered Clouds
1:35 AM 42.8 °F - 42.8 °F 100% 29.96 in 10.0 mi Calm Calm - N/A   Mostly Cloudy
1:55 AM 44.6 °F - 44.6 °F 100% 29.96 in 10.0 mi Calm Calm - N/A   Overcast
2:15 AM 44.6 °F - 44.6 °F 100% 29.96 in 10.0 mi Calm Calm - N/A   Mostly Cloudy
2:35 AM 44.6 °F - 44.6 °F 100% 29.97 in 10.0 mi Calm Calm - N/A   Partly Cloudy
2:55 AM 46.4 °F - 44.6 °F 93% 29.97 in 10.0 mi Calm Calm - N/A   Partly Cloudy
3:15 AM 41.0 °F - 41.0 °F 100% 29.97 in 10.0 mi Calm Calm - N/A   Partly Cloudy
3:35 AM 41.0 °F - 41.0 °F 100% 29.97 in 10.0 mi Calm Calm - N/A   Clear
3:55 AM 41.0 °F - 41.0 °F 100% 29.97 in 10.0 mi Calm Calm - N/A   Clear
4:15 AM 41.0 °F - 41.0 °F 100% 29.98 in 10.0 mi Calm Calm - N/A   Clear
4:35 AM 44.6 °F - 44.6 °F 100% 29.98 in 10.0 mi Calm Calm - N/A   Clear
4:55 AM 42.8 °F - 42.8 °F 100% 29.99 in 10.0 mi Calm Calm - N/A   Clear
5:15 AM 44.6 °F 43.1 °F 44.6 °F 100% 29.99 in 10.0 mi North 3.5 mph - N/A   Clear
5:35 AM 44.6 °F - 44.6 °F 100% 29.99 in 10.0 mi Calm Calm - N/A   Clear
5:55 AM 44.6 °F - 44.6 °F 100% 30.00 in 10.0 mi Calm Calm - N/A   Clear
6:15 AM 44.6 °F 43.1 °F 44.6 °F 100% 30.00 in 10.0 mi NNW 3.5 mph - N/A   Clear
6:35 AM 42.8 °F 40.1 °F 42.8 °F 100% 30.01 in 10.0 mi NNW 4.6 mph - N/A   Clear
6:55 AM 42.8 °F - 42.8 °F 100% 30.02 in 10.0 mi Calm Calm - N/A   Clear
7:15 AM 42.8 °F 41.1 °F 42.8 °F 100% 30.03 in 10.0 mi North 3.5 mph - N/A   Clear
7:35 AM 42.8 °F - 42.8 °F 100% 30.03 in 10.0 mi Calm Calm - N/A   Clear
7:55 AM 42.8 °F - 42.8 °F 100% 30.05 in 10.0 mi Calm Calm - N/A   Clear
8:15 AM 44.6 °F - 44.6 °F 100% 30.05 in 10.0 mi Calm Calm - N/A   Clear
8:35 AM 44.6 °F - 44.6 °F 100% 30.06 in 9.0 mi Calm Calm - N/A   Clear
8:55 AM 46.4 °F 43.5 °F 44.6 °F 93% 30.06 in 10.0 mi NW 5.8 mph - N/A   Clear
9:15 AM 46.4 °F 42.9 °F 44.6 °F 93% 30.07 in 10.0 mi WNW 6.9 mph - N/A   Clear
9:35 AM 48.2 °F - 44.6 °F 87% 30.07 in 10.0 mi WNW 5.8 mph - N/A   Partly Cloudy
9:55 AM 48.2 °F - 44.6 °F 87% 30.07 in 10.0 mi WNW 6.9 mph - N/A   Scattered Clouds
10:15 AM 50.0 °F - 44.6 °F 82% 30.07 in 10.0 mi West 6.9 mph - N/A   Partly Cloudy
10:35 AM 50.0 °F - 44.6 °F 82% 30.07 in 10.0 mi WNW 4.6 mph - N/A   Clear
10:55 AM 51.8 °F - 44.6 °F 76% 30.07 in 10.0 mi NW 8.1 mph - N/A   Partly Cloudy
11:15 AM 51.8 °F - 42.8 °F 71% 30.06 in 10.0 mi WNW 8.1 mph 16.1 mph N/A   Clear
11:35 AM 53.6 °F - 42.8 °F 67% 30.06 in 10.0 mi WNW 10.4 mph - N/A   Partly Cloudy
11:55 AM 53.6 °F - 41.0 °F 62% 30.06 in 10.0 mi WNW 11.5 mph 16.1 mph N/A   Partly Cloudy
12:15 PM 53.6 °F - 41.0 °F 62% 30.05 in 10.0 mi WNW 12.7 mph - N/A   Clear
12:35 PM 55.4 °F - 41.0 °F 58% 30.05 in 10.0 mi West 4.6 mph 18.4 mph N/A   Clear
12:55 PM 55.4 °F - 41.0 °F 58% 30.04 in 10.0 mi West 3.5 mph - N/A   Clear
1:15 PM 55.4 °F - 39.2 °F 54% 30.03 in 10.0 mi WNW 6.9 mph - N/A   Clear
1:35 PM 57.2 °F - 39.2 °F 51% 30.02 in 10.0 mi West 3.5 mph - N/A   Clear
1:55 PM 57.2 °F - 37.4 °F 48% 30.00 in 10.0 mi NW 9.2 mph - N/A   Clear
2:15 PM 57.2 °F - 37.4 °F 48% 30.00 in 10.0 mi WNW 5.8 mph - N/A   Clear
2:35 PM 57.2 °F - 37.4 °F 48% 30.00 in 10.0 mi NNW 6.9 mph - N/A   Clear
2:55 PM 59.0 °F - 37.4 °F 45% 29.99 in 10.0 mi WNW 3.5 mph - N/A   Clear
3:15 PM 59.0 °F - 35.6 °F 42% 29.99 in 10.0 mi West 5.8 mph - N/A   Clear
3:35 PM 59.0 °F - 35.6 °F 42% 29.98 in 10.0 mi NNW 6.9 mph - N/A   Clear
3:55 PM 59.0 °F - 35.6 °F 42% 29.99 in 10.0 mi NW 9.2 mph - N/A   Clear
4:15 PM 59.0 °F - 32.0 °F 36% 29.99 in 10.0 mi WNW 9.2 mph - N/A   Clear
4:35 PM 59.0 °F - 32.0 °F 36% 30.00 in 10.0 mi WNW 6.9 mph - N/A   Clear
4:55 PM 57.2 °F - 32.0 °F 38% 29.99 in 10.0 mi NNW 11.5 mph - N/A   Clear
5:15 PM 57.2 °F - 33.8 °F 41% 30.00 in 10.0 mi North 10.4 mph - N/A   Clear
5:35 PM 55.4 °F - 33.8 °F 44% 30.01 in 8.0 mi NNW 13.8 mph - N/A   Scattered Clouds
5:55 PM 55.4 °F - 33.8 °F 44% 30.01 in 9.0 mi NNW 9.2 mph - N/A   Mostly Cloudy
6:15 PM 53.6 °F - 33.8 °F 47% 30.01 in 9.0 mi NNW 6.9 mph - N/A   Mostly Cloudy
6:35 PM 53.6 °F - 35.6 °F 51% 30.01 in 7.0 mi NW 6.9 mph - N/A   Mostly Cloudy
6:55 PM 53.6 °F - 35.6 °F 51% 30.02 in 7.0 mi NW 6.9 mph - N/A   Overcast
7:15 PM 53.6 °F - 35.6 °F 51% 30.03 in 10.0 mi NW 6.9 mph - N/A   Overcast
7:35 PM 53.6 °F - 35.6 °F 51% 30.04 in 10.0 mi NW 5.8 mph - N/A   Overcast
7:55 PM 53.6 °F - 35.6 °F 51% 30.03 in 10.0 mi North 4.6 mph - N/A   Overcast
8:15 PM 51.8 °F - 35.6 °F 54% 30.02 in 10.0 mi North 8.1 mph - N/A   Overcast
8:35 PM 50.0 °F - 35.6 °F 58% 30.02 in 10.0 mi NNW 10.4 mph - N/A   Mostly Cloudy
8:55 PM 50.0 °F - 37.4 °F 62% 30.04 in 10.0 mi NW 8.1 mph - N/A   Overcast
9:15 PM 48.2 °F - 39.2 °F 71% 30.03 in 10.0 mi NNW 11.5 mph - N/A   Overcast
9:35 PM 48.2 °F - 39.2 °F 71% 30.03 in 10.0 mi NNW 11.5 mph - N/A Rain Light Rain
9:55 PM 46.4 °F 41.9 °F 41.0 °F 81% 30.03 in 10.0 mi NNW 9.2 mph - N/A Rain Light Rain
10:15 PM 44.6 °F 39.7 °F 42.8 °F 93% 30.04 in 5.0 mi NW 9.2 mph - 0.01 in Rain Light Rain
10:35 PM 44.6 °F 39.7 °F 41.0 °F 87% 30.03 in 5.0 mi NNW 9.2 mph - 0.03 in Rain Light Rain
10:55 PM 42.8 °F 38.6 °F 42.8 °F 100% 30.03 in 5.0 mi NW 6.9 mph - 0.05 in Rain Light Rain
11:15 PM 42.8 °F 40.1 °F 42.8 °F 100% 30.02 in 5.0 mi NW 4.6 mph - 0.01 in Rain Light Rain
11:35 PM 41.0 °F 37.1 °F 41.0 °F 100% 30.02 in 5.0 mi NW 5.8 mph - 0.02 in Rain Light Rain
11:55 PM 41.0 °F 36.4 °F 41.0 °F 100% 30.02 in 5.0 mi NW 6.9 mph - 0.04 in Rain Light Rain